Eielson Air Force Base, AK

11:12 PM AKDT on July 26, 2016 (GMT -0800)
Eielson Air Force Base

Weather History for PAEI - March, 2014

Change the Weather History Date:

Friday, March 7, 2014

  Actual Average Record
Temperature  
Mean Temperature -3 °F -  
Max Temperature 16 °F 20 °F 46 °F (2008)
Min Temperature -22 °F -6 °F -40 °F (1971)
Degree Days  
Heating Degree Days 68    
Moisture  
Dew Point -15 °F    
Average Humidity 72    
Maximum Humidity 83    
Minimum Humidity 41    
Precipitation  
Precipitation 0.00 in - - ()
Sea Level Pressure  
Sea Level Pressure 29.84 in    
Wind  
Wind Speed 1 mph (North)    
Max Wind Speed 7 mph    
Max Gust Speed -    
Visibility 9 miles    
Events      
Averages and records for this station are not official NWS values.
T = Trace of Precipitation, MM = Missing Value Source: NWS Daily Summary

Daily Weather History Graph

Daily Weather History Graph

Search for Another Location

Airport or City:

Trip Planner

Search our weather history database for the weather conditions in past years. The results will help you decide how hot, cold, wet, or windy it might be!

Date:

Astronomy

Mar. 07, 2014 Rise Set
Actual Time 7:35 AM AKST 6:25 PM AKST
Civil Twilight 6:46 AM AKST 7:13 PM AKST
Nautical Twilight 5:50 AM AKST 8:10 PM AKST
Astronomical Twilight 4:50 AM AKST 9:10 PM AKST
Moon 9:15 AM AKST (3/7) 2:56 AM AKST (3/7)
Length of Visible Light 12h 27m
Length of Day
10h 49m
Waxing Crescent, 43% of the Moon is Illuminated
Mar 7
Waxing Crescent
Mar 8
First Quarter
Mar 16
Full
Mar 23
Last Quarter
Mar 30
New

Hourly Weather History & Observations

Time (AKST) Temp. Windchill Dew Point Humidity Pressure Visibility Wind Dir Wind Speed Gust Speed Precip Events Conditions
12:58 AM 2.1 °F - -6.9 °F 66% 29.96 in 10.0 mi Variable 2.3 mph - N/A   Clear
1:58 AM -4.9 °F -13.4 °F -9.9 °F 79% 29.96 in 10.0 mi Variable 3.5 mph - N/A   Clear
2:58 AM -15.0 °F - -20.4 °F 77% 29.97 in 9.0 mi Calm Calm - N/A   Clear
3:58 AM -15.7 °F - -20.9 °F 77% 29.96 in 10.0 mi Calm Calm - N/A   Clear
4:58 AM -20.2 °F - -26.3 °F 73% 29.96 in 10.0 mi Calm Calm - N/A   Clear
5:28 AM -18.4 °F - -23.8 °F 76% 29.89 in 8.0 mi Calm Calm - N/A   Clear
5:43 AM -18.4 °F - -23.8 °F 76% 29.89 in 10.0 mi Calm Calm - N/A   Clear
5:58 AM -19.1 °F - -25.6 °F 72% 29.95 in 10.0 mi Calm Calm - N/A   Clear
6:58 AM -21.8 °F - -27.9 °F 73% 29.95 in 10.0 mi East 1.2 mph - N/A   Clear
7:43 AM -20.2 °F - -25.6 °F 76% 29.89 in 2.0 mi Calm Calm - N/A   Haze
7:58 AM -22.0 °F - -28.5 °F 72% 29.95 in 10.0 mi Calm Calm - N/A   Clear
8:58 AM -20.7 °F - -26.9 °F 73% 29.94 in 10.0 mi Calm Calm - N/A   Clear
9:58 AM -11.7 °F - -17.7 °F 75% 29.93 in 10.0 mi Calm Calm - N/A   Clear
10:58 AM -5.6 °F - -11.0 °F 77% 29.92 in 10.0 mi Calm Calm - N/A   Clear
11:58 AM 0.7 °F - -7.8 °F 68% 29.90 in 10.0 mi NNE 1.2 mph - N/A   Clear
12:58 PM 5.2 °F - -5.4 °F 62% 29.87 in 10.0 mi Calm Calm - N/A   Clear
1:58 PM 7.7 °F - -3.1 °F 61% 29.86 in 10.0 mi Calm Calm - N/A   Clear
2:58 PM 12.9 °F - -2.0 °F 51% 29.82 in 10.0 mi Variable 1.2 mph - N/A   Clear
3:58 PM 16.3 °F 9.2 °F -4.0 °F 41% 29.79 in 10.0 mi WSW 4.6 mph - N/A   Clear
4:58 PM 16.2 °F 10.6 °F -1.1 °F 47% 29.77 in 10.0 mi West 3.5 mph - N/A   Clear
5:58 PM 7.7 °F - 2.3 °F 79% 29.75 in 10.0 mi Calm Calm - N/A   Clear
6:58 PM -1.8 °F -9.9 °F -5.8 °F 83% 29.74 in 10.0 mi Variable 3.5 mph - N/A   Clear
7:58 PM -6.0 °F -20.1 °F -11.0 °F 79% 29.74 in 10.0 mi Variable 6.9 mph - N/A   Clear
8:58 PM -1.8 °F - -7.6 °F 76% 29.72 in 10.0 mi Calm Calm - N/A   Clear
9:58 PM -13.7 °F - -18.2 °F 80% 29.71 in 10.0 mi Calm Calm - N/A   Clear
10:58 PM -13.2 °F - -18.8 °F 76% 29.68 in 10.0 mi Calm Calm - N/A   Clear
11:13 PM -13.0 °F - -18.4 °F 77% 29.62 in 4.0 mi NNE 2.3 mph - N/A   Haze
11:43 PM -13.0 °F - -18.4 °F 77% 29.61 in 10.0 mi Calm Calm - N/A   Clear
11:58 PM -12.1 °F - -17.5 °F 77% 29.67 in 5.0 mi Calm Calm - 0.00 in   Haze